EA3CTN-13 Weather Reports


Display with metric or nautical units.
time (UTC)temp
F
wind
direction
speed
MPH
gust
MPH
rain 1hr
in
rain 24hr
in
rain mn
in
humidity
%
barometer
mb
20260508220523 69 0.0 0.0 0.00 0.00 0.00 60 1016.0
20260508215723 69 0.0 0.0 0.00 0.00 0.00 60 1016.0
20260508214923 69 0.0 0.0 0.00 0.00 0.00 60 1015.8
20260508214123 69 0.0 0.0 0.00 0.00 0.00 60 1015.8
20260508213323 69 0.0 0.0 0.00 0.00 0.00 60 1015.9
20260508212523 69 0.0 0.0 0.00 0.00 0.00 59 1016.0
20260508211723 69 0.0 0.0 0.00 0.00 0.00 59 1016.0
20260508210923 69 0.0 0.0 0.00 0.00 0.00 59 1016.0
20260508210123 69 0.0 0.0 0.00 0.00 0.00 58 1016.1
20260508205323 69 0.0 0.0 0.00 0.00 0.00 59 1016.1
20260508204523 69 0.0 0.0 0.00 0.00 0.00 59 1016.0
20260508203723 69 0.0 0.0 0.00 0.00 0.00 58 1015.9
20260508202923 69 0.0 0.0 0.00 0.00 0.00 58 1015.8
20260508202123 69 0.0 0.0 0.00 0.00 0.00 57 1015.7
20260508201323 69 0.0 0.0 0.00 0.00 0.00 56 1015.6
20260508200523 69 0.0 0.0 0.00 0.00 0.00 56 1015.5
20260508195723 69 0.0 0.0 0.00 0.00 0.00 55 1015.4
20260508194923 69 0.0 0.0 0.00 0.00 0.00 55 1015.4
20260508194123 69 0.0 0.0 0.00 0.00 0.00 55 1015.3
20260508193323 70 0.0 0.0 0.00 0.00 0.00 54 1015.2
20260508192523 70 0.0 0.0 0.00 0.00 0.00 53 1015.2
20260508191723 70 0.0 0.0 0.00 0.00 0.00 52 1015.1
20260508190923 70 0.0 0.0 0.00 0.00 0.00 51 1015.0
20260508190123 70 0.0 0.0 0.00 0.00 0.00 49 1014.9
20260508185323 70 0.0 0.0 0.00 0.00 0.00 47 1014.8
20260508184523 71 0.0 0.0 0.00 0.00 0.00 47 1014.8
20260508183723 71 0.0 0.0 0.00 0.00 0.00 46 1014.8
20260508182923 71 0.0 0.0 0.00 0.00 0.00 47 1014.7
20260508182123 72 0.0 0.0 0.00 0.00 0.00 46 1014.5
20260508181323 72 0.0 0.0 0.00 0.00 0.00 47 1014.4
20260508180523 72 0.0 0.0 0.00 0.00 0.00 48 1014.3
20260508175723 72 0.0 0.0 0.00 0.00 0.00 48 1014.3
20260508174923 73 0.0 0.0 0.00 0.00 0.00 48 1014.3
20260508174123 73 0.0 0.0 0.00 0.00 0.00 48 1014.3
20260508173323 73 0.0 0.0 0.00 0.00 0.00 48 1014.3
20260508172523 73 0.0 0.0 0.00 0.00 0.00 48 1014.3
20260508171723 74 0.0 0.0 0.00 0.00 0.00 45 1014.3
20260508170923 74 0.0 0.0 0.00 0.00 0.00 45 1014.2
20260508170123 76 0.0 0.0 0.00 0.00 0.00 41 1014.1
20260508165323 76 0.0 0.0 0.00 0.00 0.00 43 1014.0
20260508164523 78 0.0 0.0 0.00 0.00 0.00 41 1014.0
20260508163723 82 0.0 0.0 0.00 0.00 0.00 37 1013.9
20260508162923 83 0.0 0.0 0.00 0.00 0.00 34 1013.8
20260508162123 80 0.0 0.0 0.00 0.00 0.00 38 1014.0
20260508161323 86 0.0 0.0 0.00 0.00 0.00 31 1013.6
20260508160523 90 0.0 0.0 0.00 0.00 0.00 28 1013.8
20260508155723 82 0.0 0.0 0.00 0.00 0.00 35 1014.0
20260508154923 74 0.0 0.0 0.00 0.00 0.00 44 1014.2
20260508154125 73 0.0 0.0 0.00 0.00 0.00 45 1014.3
20260508153323 74 0.0 0.0 0.00 0.00 0.00 45 1014.4
20260508152523 72 0.0 0.0 0.00 0.00 0.00 47 1014.5
20260508151723 72 0.0 0.0 0.00 0.00 0.00 48 1014.5
20260508150923 72 0.0 0.0 0.00 0.00 0.00 50 1014.5
20260508150123 72 0.0 0.0 0.00 0.00 0.00 50 1014.5
20260508145323 71 0.0 0.0 0.00 0.00 0.00 51 1014.4
20260508144523 72 0.0 0.0 0.00 0.00 0.00 52 1014.4
20260508143723 71 0.0 0.0 0.00 0.00 0.00 53 1014.3
20260508142923 71 0.0 0.0 0.00 0.00 0.00 54 1014.4
20260508142123 71 0.0 0.0 0.00 0.00 0.00 54 1014.4
20260508141323 71 0.0 0.0 0.00 0.00 0.00 53 1014.6
20260508140523 71 0.0 0.0 0.00 0.00 0.00 52 1014.7
20260508135723 72 0.0 0.0 0.00 0.00 0.00 50 1014.7
20260508134924 72 0.0 0.0 0.00 0.00 0.00 50 1014.8
20260508134123 72 0.0 0.0 0.00 0.00 0.00 50 1014.9
20260508133323 72 0.0 0.0 0.00 0.00 0.00 51 1014.7
20260508132523 72 0.0 0.0 0.00 0.00 0.00 53 1014.9
20260508131723 72 0.0 0.0 0.00 0.00 0.00 52 1015.0
20260508130923 71 0.0 0.0 0.00 0.00 0.00 50 1015.0
20260508130123 72 0.0 0.0 0.00 0.00 0.00 48 1015.1
20260508125323 72 0.0 0.0 0.00 0.00 0.00 47 1015.0
20260508124523 72 0.0 0.0 0.00 0.00 0.00 47 1015.0
20260508123723 72 0.0 0.0 0.00 0.00 0.00 48 1015.0
20260508122923 72 0.0 0.0 0.00 0.00 0.00 48 1015.1
20260508122123 72 0.0 0.0 0.00 0.00 0.00 47 1015.1
20260508121322 71 0.0 0.0 0.00 0.00 0.00 47 1015.1
20260508120523 72 0.0 0.0 0.00 0.00 0.00 45 1015.1
20260508115723 72 0.0 0.0 0.00 0.00 0.00 45 1015.2
20260508114922 71 0.0 0.0 0.00 0.00 0.00 45 1015.2
20260508114123 71 0.0 0.0 0.00 0.00 0.00 44 1015.2
20260508113322 71 0.0 0.0 0.00 0.00 0.00 43 1015.0
20260508112522 70 0.0 0.0 0.00 0.00 0.00 46 1015.1
20260508111722 70 0.0 0.0 0.00 0.00 0.00 45 1015.0
20260508110922 70 0.0 0.0 0.00 0.00 0.00 46 1015.0
20260508110122 70 0.0 0.0 0.00 0.00 0.00 51 1015.1
20260508105322 70 0.0 0.0 0.00 0.00 0.00 52 1015.0
20260508104522 70 0.0 0.0 0.00 0.00 0.00 52 1015.0
20260508103722 70 0.0 0.0 0.00 0.00 0.00 51 1015.0
20260508102923 70 0.0 0.0 0.00 0.00 0.00 51 1015.1
20260508102124 70 0.0 0.0 0.00 0.00 0.00 51 1015.2
20260508101322 70 0.0 0.0 0.00 0.00 0.00 51 1015.2
20260508100522 70 0.0 0.0 0.00 0.00 0.00 52 1015.5
20260508095722 70 0.0 0.0 0.00 0.00 0.00 50 1015.4
20260508094922 69 0.0 0.0 0.00 0.00 0.00 51 1015.2
20260508094122 70 0.0 0.0 0.00 0.00 0.00 52 1015.2
20260508093322 69 0.0 0.0 0.00 0.00 0.00 54 1015.3
20260508092522 69 0.0 0.0 0.00 0.00 0.00 53 1015.2
20260508091722 69 0.0 0.0 0.00 0.00 0.00 53 1015.3
20260508090922 69 0.0 0.0 0.00 0.00 0.00 52 1015.1
20260508090122 69 0.0 0.0 0.00 0.00 0.00 52 1015.1
20260508085322 69 0.0 0.0 0.00 0.00 0.00 54 1015.0
20260508084522 68 0.0 0.0 0.00 0.00 0.00 56 1014.9
20260508083722 68 0.0 0.0 0.00 0.00 0.00 56 1014.9
20260508082922 68 0.0 0.0 0.00 0.00 0.00 55 1014.9
20260508082122 68 0.0 0.0 0.00 0.00 0.00 55 1014.6
20260508081322 68 0.0 0.0 0.00 0.00 0.00 56 1014.5
20260508080522 68 0.0 0.0 0.00 0.00 0.00 54 1014.5
20260508075722 67 0.0 0.0 0.00 0.00 0.00 52 1014.4
20260508074922 67 0.0 0.0 0.00 0.00 0.00 53 1014.3
20260508074122 67 0.0 0.0 0.00 0.00 0.00 52 1014.2
20260508073322 67 0.0 0.0 0.00 0.00 0.00 52 1014.2
20260508072522 67 0.0 0.0 0.00 0.00 0.00 51 1014.2
20260508071722 67 0.0 0.0 0.00 0.00 0.00 51 1014.0
20260508070922 66 0.0 0.0 0.00 0.00 0.00 52 1013.9
20260508070122 66 0.0 0.0 0.00 0.00 0.00 52 1013.8